• en Suisse
  • Liste des pays
  • À 7 jours
  • Température de l'eau
  • Carte satellitaire
  • Carte météo
  • Widgets météo
  • user-avatar
    Se connecter

    Météo par heure à Preston

    Ce jour, 16 Décembre, Samedi

    Heure Température Précipitation Vent Pression Humidité
    00:00 0°C° 0 mm 4 m/s 757 mmHg 82%
    01:00 0°C° 0 mm 4 m/s 757 mmHg 82%
    02:00 0°C° 0 mm 4 m/s 758 mmHg 82%
    03:00 0°C° 0 mm 5 m/s 758 mmHg 81%
    04:00 0°C° 0 mm 4 m/s 758 mmHg 81%
    05:00 0°C° 0 mm 4 m/s 759 mmHg 80%
    06:00 0°C° 0 mm 4 m/s 759 mmHg 80%
    07:00 +1°C° 0,1 mm 3 m/s 759 mmHg 79%
    08:00 +1°C° 0,1 mm 3 m/s 760 mmHg 78%
    09:00 +2°C° 0,1 mm 2 m/s 760 mmHg 78%
    10:00 +3°C° 0,1 mm 2 m/s 760 mmHg 76%
    11:00 +3°C° 0,1 mm 2 m/s 760 mmHg 74%
    12:00 +4°C° 0,1 mm 2 m/s 760 mmHg 71%
    13:00 +4°C° 0 mm 2 m/s 761 mmHg 73%
    14:00 +4°C° 0 mm 2 m/s 761 mmHg 74%
    15:00 +3°C° 0 mm 2 m/s 761 mmHg 76%
    16:00 +3°C° 0 mm 2 m/s 762 mmHg 77%
    17:00 +3°C° 0 mm 2 m/s 762 mmHg 78%
    18:00 +2°C° 0 mm 2 m/s 763 mmHg 79%
    19:00 +2°C° 0 mm 2 m/s 763 mmHg 80%
    20:00 +2°C° 0 mm 2 m/s 764 mmHg 82%
    21:00 +3°C° 0 mm 2 m/s 764 mmHg 83%
    22:00 +3°C° 0 mm 2 m/s 764 mmHg 84%
    23:00 +3°C° 0 mm 2 m/s 764 mmHg 86%

    Demain, 17 Décembre, Dimanche

    Heure Température Précipitation Vent Pression Humidité
    00:00 +3°C° 0 mm 2 m/s 764 mmHg 87%
    01:00 +3°C° 0 mm 2 m/s 764 mmHg 88%
    02:00 +3°C° 0 mm 2 m/s 764 mmHg 89%
    03:00 +2°C° 0 mm 3 m/s 764 mmHg 89%
    04:00 +3°C° 0 mm 3 m/s 764 mmHg 91%
    05:00 +3°C° 0 mm 4 m/s 764 mmHg 92%
    06:00 +3°C° 0 mm 4 m/s 764 mmHg 94%
    07:00 +3°C° 0 mm 5 m/s 763 mmHg 93%
    08:00 +3°C° 0 mm 5 m/s 763 mmHg 93%
    09:00 +3°C° 0 mm 6 m/s 763 mmHg 93%
    10:00 +4°C° 0,2 mm 6 m/s 763 mmHg 93%
    11:00 +5°C° 0,2 mm 7 m/s 762 mmHg 92%
    12:00 +5°C° 0,2 mm 7 m/s 762 mmHg 92%
    13:00 +6°C° 0,7 mm 7 m/s 761 mmHg 92%
    14:00 +6°C° 0,7 mm 7 m/s 761 mmHg 93%
    15:00 +6°C° 0,7 mm 7 m/s 760 mmHg 94%
    16:00 +8°C° 0,1 mm 7 m/s 761 mmHg 94%
    17:00 +8°C° 0,1 mm 7 m/s 762 mmHg 94%
    18:00 +8°C° 0,1 mm 7 m/s 762 mmHg 94%
    19:00 +8°C° 0 mm 6 m/s 763 mmHg 92%
    20:00 +7°C° 0 mm 5 m/s 764 mmHg 89%
    21:00 +6°C° 0 mm 5 m/s 764 mmHg 87%
    22:00 +5°C° 0 mm 4 m/s 765 mmHg 87%
    23:00 +5°C° 0 mm 3 m/s 765 mmHg 86%

    Après-demain, 18 Décembre, Lundi

    Heure Température Précipitation Vent Pression Humidité
    00:00 +4°C° 0 mm 3 m/s 766 mmHg 86%
    01:00 +5°C° 0 mm 2 m/s 766 mmHg 85%
    02:00 +4°C° 0 mm 2 m/s 767 mmHg 84%
    03:00 +5°C° 0 mm 1 m/s 767 mmHg 83%
    04:00 +5°C° 0 mm 1 m/s 768 mmHg 83%
    05:00 +5°C° 0 mm 1 m/s 768 mmHg 83%
    06:00 +5°C° 0 mm 1 m/s 768 mmHg 82%
    07:00 +5°C° 0 mm 1 m/s 769 mmHg 83%
    08:00 +5°C° 0 mm 1 m/s 769 mmHg 83%
    09:00 +5°C° 0 mm 1 m/s 769 mmHg 83%
    10:00 +6°C° 0 mm 1 m/s 769 mmHg 83%
    11:00 +5°C° 0 mm 2 m/s 770 mmHg 83%
    12:00 +6°C° 0 mm 2 m/s 770 mmHg 83%
    13:00 +6°C° 0 mm 2 m/s 770 mmHg 84%
    14:00 +6°C° 0 mm 2 m/s 769 mmHg 85%
    15:00 +6°C° 0 mm 2 m/s 769 mmHg 86%
    16:00 +6°C° 0 mm 2 m/s 770 mmHg 87%
    17:00 +6°C° 0 mm 2 m/s 770 mmHg 87%
    18:00 +4°C° 0 mm 3 m/s 770 mmHg 88%
    19:00 +5°C° 0 mm 3 m/s 770 mmHg 90%
    20:00 +5°C° 0 mm 3 m/s 770 mmHg 92%
    21:00 +5°C° 0 mm 3 m/s 771 mmHg 94%
    22:00 +7°C° 0 mm 3 m/s 771 mmHg 95%
    23:00 +7°C° 0 mm 3 m/s 771 mmHg 96%

    19 Décembre, Mardi

    Heure Température Précipitation Vent Pression Humidité
    00:00 +7°C° 0 mm 3 m/s 771 mmHg 97%
    01:00 +8°C° 0,1 mm 3 m/s 771 mmHg 97%
    02:00 +8°C° 0,1 mm 3 m/s 771 mmHg 97%
    03:00 +8°C° 0,1 mm 3 m/s 771 mmHg 97%
    04:00 +8°C° 0 mm 3 m/s 771 mmHg 97%
    05:00 +8°C° 0 mm 3 m/s 771 mmHg 97%
    06:00 +9°C° 0 mm 3 m/s 770 mmHg 97%
    07:00 +9°C° 0 mm 3 m/s 771 mmHg 97%
    08:00 +9°C° 0 mm 3 m/s 771 mmHg 97%
    09:00 +9°C° 0 mm 3 m/s 771 mmHg 97%
    10:00 +9°C° 0 mm 3 m/s 771 mmHg 97%
    11:00 +10°C° 0 mm 4 m/s 771 mmHg 96%
    12:00 +10°C° 0 mm 4 m/s 771 mmHg 96%
    13:00 +11°C° 0 mm 4 m/s 771 mmHg 96%
    14:00 +11°C° 0 mm 4 m/s 771 mmHg 96%
    15:00 +11°C° 0 mm 4 m/s 771 mmHg 96%
    16:00 +11°C° 0 mm 4 m/s 771 mmHg 96%
    17:00 +10°C° 0 mm 5 m/s 771 mmHg 96%
    18:00 +10°C° 0 mm 5 m/s 771 mmHg 96%
    19:00 +10°C° 0 mm 5 m/s 771 mmHg 96%
    20:00 +10°C° 0 mm 5 m/s 771 mmHg 96%
    21:00 +10°C° 0 mm 5 m/s 772 mmHg 96%
    22:00 +10°C° 0 mm 5 m/s 772 mmHg 95%
    23:00 +10°C° 0 mm 5 m/s 772 mmHg 95%

    20 Décembre, Mercredi

    Heure Température Précipitation Vent Pression Humidité
    00:00 +10°C° 0 mm 5 m/s 772 mmHg 95%
    01:00 +10°C° 0,2 mm 5 m/s 772 mmHg 95%
    02:00 +10°C° 0,2 mm 4 m/s 772 mmHg 95%
    03:00 +10°C° 0,2 mm 4 m/s 772 mmHg 95%
    04:00 +10°C° 0,2 mm 4 m/s 772 mmHg 95%
    05:00 +10°C° 0,2 mm 3 m/s 773 mmHg 96%
    06:00 +10°C° 0,2 mm 3 m/s 773 mmHg 96%
    07:00 +10°C° 0,1 mm 3 m/s 773 mmHg 96%
    08:00 +10°C° 0,1 mm 3 m/s 773 mmHg 96%
    09:00 +10°C° 0,1 mm 3 m/s 773 mmHg 96%
    10:00 +10°C° 0,2 mm 3 m/s 773 mmHg 95%
    11:00 +11°C° 0,2 mm 4 m/s 773 mmHg 94%
    12:00 +11°C° 0,2 mm 4 m/s 773 mmHg 92%
    13:00 +11°C° 0 mm 4 m/s 772 mmHg 91%
    14:00 +10°C° 0 mm 5 m/s 772 mmHg 90%
    15:00 +10°C° 0 mm 5 m/s 772 mmHg 89%
    16:00 +10°C° 0 mm 5 m/s 771 mmHg 89%
    17:00 +9°C° 0 mm 6 m/s 771 mmHg 89%
    18:00 +9°C° 0 mm 6 m/s 771 mmHg 89%
    19:00 +9°C° 0 mm 7 m/s 771 mmHg 89%
    20:00 +9°C° 0 mm 7 m/s 771 mmHg 89%
    21:00 +9°C° 0 mm 7 m/s 770 mmHg 90%
    22:00 +9°C° 0,2 mm 8 m/s 770 mmHg 90%
    23:00 +9°C° 0,2 mm 8 m/s 770 mmHg 89%

    21 Décembre, Jeudi

    Heure Température Précipitation Vent Pression Humidité
    00:00 +10°C° 0,2 mm 9 m/s 770 mmHg 89%
    01:00 +10°C° 0,2 mm 8 m/s 770 mmHg 90%
    02:00 +10°C° 0,2 mm 8 m/s 770 mmHg 90%
    03:00 +11°C° 0,2 mm 8 m/s 770 mmHg 90%
    04:00 +10°C° 0,2 mm 7 m/s 770 mmHg 90%
    05:00 +10°C° 0,2 mm 6 m/s 770 mmHg 91%
    06:00 +9°C° 0,2 mm 5 m/s 770 mmHg 91%
    07:00 +9°C° 0 mm 5 m/s 771 mmHg 90%
    08:00 +8°C° 0 mm 5 m/s 771 mmHg 90%
    09:00 +8°C° 0 mm 5 m/s 772 mmHg 90%
    10:00 +8°C° 0 mm 5 m/s 772 mmHg 87%
    11:00 +8°C° 0 mm 5 m/s 772 mmHg 85%
    12:00 +9°C° 0 mm 5 m/s 772 mmHg 82%
    13:00 +8°C° 0 mm 5 m/s 772 mmHg 83%
    14:00 +8°C° 0 mm 5 m/s 771 mmHg 83%
    15:00 +8°C° 0 mm 5 m/s 771 mmHg 84%
    16:00 +7°C° 0,1 mm 5 m/s 771 mmHg 85%
    17:00 +7°C° 0,1 mm 6 m/s 771 mmHg 86%
    18:00 +6°C° 0,1 mm 7 m/s 772 mmHg 87%
    19:00 +6°C° 0,3 mm 7 m/s 772 mmHg 85%
    20:00 +6°C° 0,3 mm 7 m/s 772 mmHg 84%
    21:00 +6°C° 0,3 mm 8 m/s 772 mmHg 83%
    22:00 +5°C° 0 mm 7 m/s 772 mmHg 81%
    23:00 +5°C° 0 mm 6 m/s 772 mmHg 79%
    Voir plus

    XHprof extension not loaded